Regional Weather Roundup
Issued by NWS

Home | Current Version | Previous Version | Text Only | Print | Product List | Glossary Off
Versions: 1 2 3 4 5 6 7 8 9 10 11 12 13 14 15 16 17 18 19 20 21 22 23 24 25 26 27 28 29 30 31 32 33 34 35 36 37 38 39 40 41 42 43 44 45 46 47 48 49 50

000
ASUS45 KSLC 060510
RWRUT

UTAH REGIONAL WEATHER ROUNDUP
NATIONAL WEATHER SERVICE SALT LAKE CITY UT
1100 PM MDT TUE MAY 05 2015

UTZ001>011-023>025-060600-

NORTHERN UTAH

CITY           SKY/WX    TMP DP  RH WIND       PRES   REMARKS
HILL AFB       CLOUDY    57  45  64 E2        29.82F
LOGAN          CLEAR     52  47  83 CALM      29.81R
OGDEN          CLOUDY    59  44  57 SE5       29.81F
PROVO AIRPORT  CLOUDY    57  45  62 NW16G22   29.85R
SALT LAKE CITY CLOUDY    56  49  77 S8        29.83S
VERNAL         LGT RAIN  52  48  86 CALM      29.82F
WENDOVER       CLOUDY    61  45  55 SE10      29.85S
HEBER CITY     CLOUDY    50  45  81 CALM      29.88R
WEST JORDAN    CLOUDY    54  52  94 SE7       29.86S

$$

UTZ012>022-026-027-060600-

SOUTHERN/CENTRAL UTAH

CITY           SKY/WX    TMP DP  RH WIND       PRES   REMARKS
BLANDING       CLOUDY    51  47  86 SW5       29.96S
BRYCE CANYON   CLOUDY    43  38  82 NW9       30.01S
CEDAR CITY     CLOUDY    48  41  76 SE9       29.93F
DELTA          CLOUDY    51  49  92 NE7       29.91S
HANKSVILLE     MOCLDY    54  50  87 SW3       29.85R
MILFORD        CLOUDY    51  47  86 SW13      29.90R
MOAB/CYNLANDS  CLOUDY    54  53  97 CALM      29.80F
PRICE          CLOUDY    51  47  86 E5        29.85S
ST GEORGE      CLOUDY    64  48  55 NW8       29.88R
KANAB          CLOUDY    52  45  76 N12G18    29.95F

$$

REGIONAL REPORTS     COLORADO/ARIZONA

CITY           SKY/WX    TMP DP  RH WIND       PRES   REMARKS
CRAIG, CO      CLOUDY    51  45  79 SW10      29.83F
GRAND JUNCTION CLOUDY    52  51  97 NW5       29.82S
RIFLE          LGT RAIN  49  46  90 E6        29.84S
MONTROSE       CLOUDY    50  49  96 S7        29.87F
CORTEZ         CLOUDY    50  48  93 NE5       29.91S
PAGE, AZ       LGT RAIN  58  49  72 W7        29.90R
GRAND CANYON   PTCLDY    46  40  79 SW6       30.02R
KINGMAN        PTCLDY    63  37  38 S10       29.89R
FLAGSTAFF      CLEAR     44  44 100 SW7       30.05S

$$

REGIONAL REPORTS    NEVADA/IDAHO/WYOMING

CITY           SKY/WX    TMP DP  RH WIND       PRES   REMARKS
LAS VEGAS, NV  MOCLDY    78  32  18 S13       29.71R
ELY            CLOUDY    48  36  63 SE5       29.91S
ELKO           MOCLDY    56  35  45 NE7       29.82R
POCATELLO, ID  CLEAR     59  27  29 SW21      29.80R
BURLEY         MOCLDY    53  24  32 SW13      29.81R
EVANSTON, WY   CLOUDY    44  42  93 SW5       29.90S
ROCK SPRINGS   CLOUDY    48  41  76 SW8       29.84F
KEMMERER       CLOUDY    45  41  87 CALM      29.89S

$$



USA.gov is the U.S. government's official web portal to all federal, state and local government web resources and services.